| time (UTC) | temp C | wind direction | speed KPH | gust KPH | rain 1hr cm | rain 24hr cm | rain mn cm | humidity % | barometer mb |
| 20260506134502 | 13 | 2 | 11.3 | 24.1 | 0.00 | 0.00 | 0.00 | 69 | 1009.6 |
| 20260506133602 | 13 | 3 | 9.7 | 24.1 | 0.00 | 0.00 | 0.00 | 68 | 1009.6 |
| 20260506132702 | 13 | 358 | 11.3 | 24.1 | 0.00 | 0.00 | 0.00 | 68 | 1009.6 |
| 20260506131803 | 13 | 351 | 9.7 | 19.3 | 0.00 | 0.00 | 0.00 | 69 | 1009.5 |
| 20260506130923 | 13 | 332 | 8.0 | 20.9 | 0.00 | 0.00 | 0.00 | 68 | 1009.5 |
| 20260506130002 | 14 | 353 | 6.4 | 17.7 | 0.00 | 0.00 | 0.00 | 68 | 1009.5 |
| 20260506125402 | 13 | 349 | 4.8 | 14.5 | 0.00 | 0.00 | 0.00 | 68 | 1009.5 |
| 20260506124502 | 13 | 4 | 9.7 | 20.9 | 0.00 | 0.00 | 0.00 | 68 | 1009.3 |
| 20260506123603 | 13 | 1 | 11.3 | 20.9 | 0.00 | 0.00 | 0.00 | 67 | 1009.3 |
| 20260506122702 | 13 | 354 | 8.0 | 22.5 | 0.00 | 0.00 | 0.00 | 68 | 1009.2 |
| 20260506121802 | 13 | 324 | 9.7 | 22.5 | 0.00 | 0.00 | 0.00 | 69 | 1009.3 |
| 20260506120903 | 14 | 329 | 8.0 | 20.9 | 0.00 | 0.00 | 0.00 | 69 | 1009.2 |
| 20260506120024 | 14 | 352 | 9.7 | 20.9 | 0.00 | 0.00 | 0.00 | 70 | 1009.3 |
| 20260506115402 | 13 | 1 | 8.0 | 17.7 | 0.00 | 0.00 | 0.00 | 71 | 1009.2 |
| 20260506114502 | 13 | 2 | 9.7 | 19.3 | 0.00 | 0.00 | 0.00 | 69 | 1009.3 |
| 20260506113602 | 13 | 342 | 8.0 | 17.7 | 0.00 | 0.00 | 0.00 | 71 | 1009.3 |
| 20260506112702 | 13 | 337 | 8.0 | 19.3 | 0.00 | 0.00 | 0.00 | 74 | 1009.3 |
| 20260506111823 | 13 | 304 | 11.3 | 19.3 | 0.00 | 0.00 | 0.00 | 75 | 1009.2 |
| 20260506110902 | 13 | 309 | 9.7 | 19.3 | 0.00 | 0.00 | 0.00 | 77 | 1009.2 |
| 20260506110002 | 13 | 317 | 9.7 | 19.3 | 0.00 | 0.00 | 0.00 | 76 | 1009.4 |
| 20260506105403 | 13 | 324 | 8.0 | 17.7 | 0.00 | 0.00 | 0.00 | 72 | 1009.5 |
| 20260506104502 | 13 | 352 | 8.0 | 20.9 | 0.00 | 0.00 | 0.00 | 73 | 1009.3 |
| 20260506103602 | 13 | 354 | 8.0 | 19.3 | 0.00 | 0.00 | 0.00 | 74 | 1009.4 |
| 20260506102702 | 12 | 311 | 6.4 | 14.5 | 0.00 | 0.00 | 0.00 | 78 | 1009.3 |
| 20260506101802 | 12 | 323 | 6.4 | 16.1 | 0.00 | 0.00 | 0.00 | 79 | 1009.4 |
| 20260506100903 | 12 | 320 | 8.0 | 19.3 | 0.00 | 0.00 | 0.00 | 81 | 1009.3 |
| 20260506100002 | 12 | 315 | 9.7 | 17.7 | 0.00 | 0.00 | 0.00 | 81 | 1009.2 |
| 20260506095423 | 12 | 312 | 6.4 | 17.7 | 0.00 | 0.00 | 0.00 | 82 | 1009.2 |
| 20260506094502 | 11 | 300 | 9.7 | 17.7 | 0.00 | 0.00 | 0.00 | 82 | 1009.2 |
| 20260506093623 | 11 | 308 | 9.7 | 17.7 | 0.00 | 0.00 | 0.00 | 82 | 1009.1 |
| 20260506092703 | 11 | 303 | 6.4 | 17.7 | 0.00 | 0.00 | 0.00 | 82 | 1009.3 |
| 20260506091802 | 11 | 301 | 9.7 | 19.3 | 0.00 | 0.00 | 0.00 | 83 | 1009.2 |
| 20260506090902 | 11 | 319 | 8.0 | 17.7 | 0.00 | 0.00 | 0.00 | 84 | 1009.1 |
| 20260506090023 | 11 | 311 | 8.0 | 17.7 | 0.00 | 0.00 | 0.00 | 84 | 1009.1 |
| 20260506085402 | 11 | 319 | 6.4 | 17.7 | 0.00 | 0.00 | 0.00 | 84 | 1009.1 |
| 20260506084502 | 11 | 329 | 8.0 | 17.7 | 0.00 | 0.00 | 0.00 | 84 | 1009.0 |
| 20260506083602 | 11 | 330 | 8.0 | 16.1 | 0.00 | 0.00 | 0.00 | 82 | 1009.1 |
| 20260506082702 | 11 | 334 | 8.0 | 17.7 | 0.00 | 0.00 | 0.00 | 81 | 1009.0 |
| 20260506081802 | 11 | 350 | 9.7 | 19.3 | 0.00 | 0.00 | 0.00 | 81 | 1008.8 |
| 20260506080902 | 11 | 355 | 9.7 | 19.3 | 0.00 | 0.00 | 0.00 | 81 | 1008.8 |
| 20260506072702 | 11 | 9 | 9.7 | 19.3 | 0.00 | 0.00 | 0.00 | 81 | 1008.6 |
| 20260506071802 | 11 | 4 | 11.3 | 22.5 | 0.00 | 0.00 | 0.00 | 80 | 1008.6 |
| 20260506070902 | 11 | 2 | 9.7 | 19.3 | 0.00 | 0.00 | 0.00 | 81 | 1008.5 |
| 20260506061823 | 10 | 9 | 9.7 | 19.3 | 0.00 | 0.00 | 0.00 | 85 | 1008.6 |
| 20260506060902 | 10 | 357 | 9.7 | 17.7 | 0.00 | 0.00 | 0.00 | 85 | 1008.8 |
| 20260506050902 | 9 | 3 | 4.8 | 14.5 | 0.00 | 0.00 | 0.00 | 86 | 1008.6 |
| 20260506044502 | 9 | 2 | 9.7 | 20.9 | 0.00 | 0.00 | 0.00 | 86 | 1008.6 |
| 20260506043602 | 9 | 6 | 9.7 | 19.3 | 0.00 | 0.00 | 0.00 | 86 | 1008.5 |
| 20260506042702 | 9 | 2 | 8.0 | 17.7 | 0.00 | 0.00 | 0.00 | 86 | 1008.5 |
| 20260506041802 | 9 | 3 | 8.0 | 19.3 | 0.00 | 0.00 | 0.00 | 87 | 1008.4 |
| 20260506040903 | 9 | 352 | 8.0 | 22.5 | 0.00 | 0.00 | 0.00 | 87 | 1008.4 |
| 20260506040002 | 9 | 351 | 8.0 | 22.5 | 0.00 | 0.00 | 0.00 | 88 | 1008.4 |
| 20260506035403 | 9 | 356 | 6.4 | 17.7 | 0.00 | 0.00 | 0.00 | 88 | 1008.4 |
| 20260506034523 | 8 | 358 | 8.0 | 19.3 | 0.00 | 0.00 | 0.00 | 88 | 1008.5 |
| 20260506033603 | 8 | 346 | 4.8 | 16.1 | 0.00 | 0.00 | 0.00 | 89 | 1008.4 |
| 20260506032703 | 8 | 352 | 6.4 | 16.1 | 0.00 | 0.00 | 0.00 | 89 | 1008.5 |
| 20260506031823 | 8 | 351 | 4.8 | 16.1 | 0.00 | 0.00 | 0.00 | 89 | 1008.5 |
| 20260506030902 | 8 | 350 | 6.4 | 16.1 | 0.00 | 0.00 | 0.00 | 89 | 1008.4 |
| 20260506030002 | 8 | 350 | 6.4 | 17.7 | 0.00 | 0.00 | 0.00 | 89 | 1008.4 |
| 20260506025402 | 8 | 358 | 6.4 | 17.7 | 0.00 | 0.00 | 0.00 | 88 | 1008.4 |
| 20260506024502 | 8 | 358 | 8.0 | 19.3 | 0.00 | 0.00 | 0.00 | 88 | 1008.4 |
| 20260506023602 | 8 | 355 | 8.0 | 20.9 | 0.00 | 0.00 | 0.00 | 88 | 1008.4 |
| 20260506022702 | 8 | 358 | 9.7 | 20.9 | 0.00 | 0.00 | 0.00 | 89 | 1008.4 |
| 20260506021802 | 8 | 359 | 6.4 | 17.7 | 0.00 | 0.00 | 0.00 | 89 | 1008.3 |
| 20260506020902 | 8 | 5 | 6.4 | 16.1 | 0.00 | 0.00 | 0.00 | 89 | 1008.3 |
| 20260506020023 | 8 | 10 | 8.0 | 16.1 | 0.00 | 0.00 | 0.00 | 89 | 1008.3 |
| 20260506015403 | 8 | 6 | 8.0 | 16.1 | 0.00 | 0.00 | 0.00 | 89 | 1008.3 |
| 20260506014502 | 8 | 6 | 9.7 | 20.9 | 0.00 | 0.00 | 0.00 | 89 | 1008.5 |
| 20260506013623 | 9 | 3 | 6.4 | 20.9 | 0.00 | 0.00 | 0.00 | 89 | 1008.3 |
| 20260506012702 | 9 | 357 | 8.0 | 20.9 | 0.00 | 0.00 | 0.00 | 89 | 1008.3 |
| 20260506011802 | 9 | 4 | 8.0 | 17.7 | 0.00 | 0.00 | 0.00 | 89 | 1008.5 |
| 20260506010903 | 9 | 6 | 9.7 | 17.7 | 0.00 | 0.00 | 0.00 | 89 | 1008.4 |
| 20260506010002 | 9 | 7 | 11.3 | 19.3 | 0.00 | 0.00 | 0.00 | 89 | 1008.4 |
| 20260506005423 | 9 | 8 | 11.3 | 19.3 | 0.00 | 0.00 | 0.00 | 89 | 1008.4 |
| 20260506004503 | 9 | 7 | 12.9 | 22.5 | 0.00 | 0.00 | 0.00 | 89 | 1008.5 |
| 20260506003602 | 9 | 9 | 11.3 | 19.3 | 0.00 | 0.00 | 0.00 | 88 | 1008.5 |
| 20260506002702 | 9 | 7 | 12.9 | 24.1 | 0.00 | 0.00 | 0.00 | 88 | 1008.6 |
| 20260506001802 | 9 | 8 | 12.9 | 20.9 | 0.00 | 0.00 | 0.00 | 88 | 1008.6 |
| 20260506000902 | 9 | 9 | 12.9 | 24.1 | 0.00 | 0.00 | 0.00 | 88 | 1008.6 |
| 20260506000002 | 9 | 10 | 12.9 | 24.1 | 0.00 | 0.00 | 0.00 | 88 | 1008.6 |
| 20260505235402 | 9 | 8 | 12.9 | 24.1 | 0.00 | 0.00 | 0.00 | 88 | 1008.6 |
| 20260505234523 | 9 | 7 | 14.5 | 25.7 | 0.00 | 0.00 | 0.00 | 87 | 1008.6 |
| 20260505233602 | 9 | 7 | 12.9 | 29.0 | 0.00 | 0.00 | 0.00 | 87 | 1008.6 |
| 20260505232703 | 9 | 8 | 12.9 | 22.5 | 0.00 | 0.00 | 0.00 | 87 | 1008.6 |
| 20260505231823 | 9 | 9 | 12.9 | 22.5 | 0.00 | 0.00 | 0.00 | 87 | 1008.7 |
| 20260505230902 | 9 | 6 | 12.9 | 22.5 | 0.00 | 0.00 | 0.00 | 87 | 1008.7 |
| 20260505230002 | 9 | 4 | 12.9 | 22.5 | 0.00 | 0.00 | 0.00 | 86 | 1008.8 |
| 20260505225402 | 9 | 7 | 11.3 | 20.9 | 0.00 | 0.00 | 0.00 | 86 | 1008.8 |
| 20260505224502 | 10 | 5 | 12.9 | 20.9 | 0.00 | 0.00 | 0.00 | 86 | 1008.8 |
| 20260505223602 | 10 | 8 | 12.9 | 22.5 | 0.00 | 0.00 | 0.00 | 85 | 1008.8 |
| 20260505222723 | 10 | 9 | 12.9 | 22.5 | 0.00 | 0.00 | 0.00 | 85 | 1008.7 |
| 20260505221802 | 10 | 7 | 12.9 | 22.5 | 0.00 | 0.00 | 0.00 | 85 | 1008.7 |
| 20260505220902 | 10 | 11 | 12.9 | 22.5 | 0.00 | 0.00 | 0.00 | 84 | 1008.8 |
| 20260505220003 | 10 | 11 | 11.3 | 20.9 | 0.00 | 0.00 | 0.00 | 84 | 1008.8 |
| 20260505215402 | 10 | 7 | 11.3 | 20.9 | 0.00 | 0.00 | 0.00 | 84 | 1008.8 |
| 20260505214502 | 10 | 5 | 12.9 | 20.9 | 0.00 | 0.00 | 0.00 | 83 | 1008.8 |
| 20260505213624 | 10 | 12 | 11.3 | 19.3 | 0.00 | 0.00 | 0.00 | 82 | 1008.9 |
| 20260505212702 | 10 | 10 | 12.9 | 24.1 | 0.00 | 0.00 | 0.00 | 82 | 1008.9 |
| 20260505211802 | 10 | 7 | 14.5 | 24.1 | 0.00 | 0.00 | 0.00 | 81 | 1008.9 |
| 20260505210902 | 10 | 9 | 14.5 | 24.1 | 0.00 | 0.00 | 0.00 | 81 | 1008.8 |
| 20260505210002 | 10 | 8 | 12.9 | 24.1 | 0.00 | 0.00 | 0.00 | 81 | 1008.8 |
| 20260505205402 | 10 | 11 | 12.9 | 25.7 | 0.00 | 0.00 | 0.00 | 80 | 1008.8 |
| 20260505204502 | 10 | 8 | 14.5 | 25.7 | 0.00 | 0.00 | 0.00 | 80 | 1008.9 |
| 20260505203602 | 10 | 11 | 14.5 | 30.6 | 0.00 | 0.00 | 0.00 | 80 | 1008.8 |
| 20260505202702 | 10 | 9 | 16.1 | 33.8 | 0.00 | 0.00 | 0.00 | 80 | 1008.7 |
| 20260505201802 | 11 | 8 | 16.1 | 25.7 | 0.00 | 0.00 | 0.00 | 80 | 1008.7 |
| 20260505200923 | 11 | 7 | 17.7 | 29.0 | 0.00 | 0.00 | 0.00 | 80 | 1008.7 |
| 20260505200003 | 11 | 6 | 16.1 | 29.0 | 0.00 | 0.00 | 0.00 | 81 | 1008.7 |
| 20260505195402 | 11 | 9 | 16.1 | 30.6 | 0.00 | 0.00 | 0.00 | 81 | 1008.6 |
| 20260505194523 | 11 | 7 | 14.5 | 29.0 | 0.00 | 0.00 | 0.00 | 81 | 1008.4 |
| 20260505193602 | 11 | 8 | 14.5 | 24.1 | 0.00 | 0.00 | 0.00 | 81 | 1008.5 |
| 20260505192702 | 11 | 10 | 16.1 | 29.0 | 0.00 | 0.00 | 0.00 | 80 | 1008.4 |
| 20260505191802 | 11 | 10 | 12.9 | 25.7 | 0.00 | 0.00 | 0.00 | 80 | 1008.3 |
| 20260505190902 | 11 | 9 | 14.5 | 29.0 | 0.00 | 0.00 | 0.00 | 80 | 1008.1 |
| 20260505190023 | 11 | 5 | 12.9 | 22.5 | 0.00 | 0.00 | 0.00 | 80 | 1008.1 |
| 20260505185403 | 11 | 7 | 12.9 | 22.5 | 0.00 | 0.00 | 0.00 | 80 | 1008.1 |
| 20260505184502 | 12 | 8 | 14.5 | 25.7 | 0.00 | 0.00 | 0.00 | 80 | 1008.2 |
| 20260505183602 | 12 | 4 | 14.5 | 24.1 | 0.00 | 0.00 | 0.00 | 80 | 1008.1 |
| 20260505182723 | 12 | 4 | 12.9 | 22.5 | 0.00 | 0.00 | 0.00 | 80 | 1008.0 |
| 20260505181823 | 12 | 4 | 14.5 | 25.7 | 0.00 | 0.00 | 0.00 | 79 | 1008.0 |
| 20260505180902 | 12 | 7 | 16.1 | 24.1 | 0.00 | 0.00 | 0.00 | 79 | 1008.0 |
| 20260505180002 | 12 | 12 | 14.5 | 32.2 | 0.00 | 0.00 | 0.00 | 79 | 1007.9 |
| 20260505175403 | 12 | 9 | 16.1 | 32.2 | 0.00 | 0.00 | 0.00 | 78 | 1007.9 |
| 20260505174503 | 12 | 4 | 17.7 | 33.8 | 0.00 | 0.00 | 0.00 | 78 | 1007.8 |
| 20260505173602 | 13 | 10 | 14.5 | 30.6 | 0.00 | 0.00 | 0.00 | 79 | 1007.9 |
| 20260505172702 | 13 | 9 | 16.1 | 29.0 | 0.00 | 0.00 | 0.00 | 78 | 1007.9 |
| 20260505171802 | 13 | 8 | 17.7 | 32.2 | 0.00 | 0.00 | 0.00 | 78 | 1007.8 |
| 20260505170902 | 13 | 7 | 17.7 | 33.8 | 0.00 | 0.00 | 0.00 | 79 | 1007.8 |
| 20260505170002 | 13 | 9 | 16.1 | 30.6 | 0.00 | 0.00 | 0.00 | 80 | 1007.9 |
| 20260505165423 | 13 | 11 | 16.1 | 30.6 | 0.00 | 0.00 | 0.00 | 79 | 1007.8 |
| 20260505164502 | 13 | 6 | 16.1 | 29.0 | 0.00 | 0.00 | 0.00 | 79 | 1007.9 |
| 20260505163623 | 14 | 8 | 12.9 | 22.5 | 0.00 | 0.00 | 0.00 | 80 | 1007.9 |
| 20260505162703 | 14 | 8 | 12.9 | 30.6 | 0.00 | 0.00 | 0.00 | 79 | 1007.9 |
| 20260505161802 | 14 | 8 | 14.5 | 24.1 | 0.00 | 0.00 | 0.00 | 79 | 1007.8 |
| 20260505160902 | 14 | 355 | 12.9 | 30.6 | 0.00 | 0.00 | 0.00 | 79 | 1007.7 |
| 20260505152704 | 15 | 2 | 9.7 | 24.1 | 0.00 | 0.00 | 0.00 | 77 | 1007.9 |
| 20260505151802 | 15 | 359 | 11.3 | 20.9 | 0.00 | 0.00 | 0.00 | 77 | 1008.0 |
| 20260505150902 | 15 | 5 | 12.9 | 24.1 | 0.00 | 0.00 | 0.00 | 77 | 1007.9 |